Pineville, WV

8:43 PM EDT on October 22, 2019 (GMT -0400)
Pineville

Weather History for KI16 - September, 2019

Change the Weather History Date:

Sunday, September 22, 2019

  Actual Average (KBKW) Record (KBKW)
Temperature  
Mean Temperature 75 °F -  
Max Temperature 90 °F 69 °F 90 °F (1931)
Min Temperature 60 °F 51 °F 25 °F (1913)
Cooling Degree Days 10    
Growing Degree Days 25 (Base 50)    
Moisture  
Dew Point 60 °F    
Average Humidity 70    
Maximum Humidity 97    
Minimum Humidity 31    
Precipitation  
Precipitation 0.00 in - - ()
Sea Level Pressure  
Sea Level Pressure 30.24 in    
Wind  
Wind Speed - (North)    
Max Wind Speed -    
Max Gust Speed -    
Visibility 9 miles    
Events      
Averages and records for this station are not official NWS values.
T = Trace of Precipitation, MM = Missing Value Source: NWS Daily Summary

Daily Weather History Graph

Daily Weather History Graph

Search for Another Location

Airport or City:

Astronomy

Sep. 22, 2019 Rise Set
Actual Time 7:13 AM EDT 7:23 PM EDT
Civil Twilight 6:47 AM EDT 7:49 PM EDT
Nautical Twilight 6:17 AM EDT 8:20 PM EDT
Astronomical Twilight 5:46 AM EDT 8:51 PM EDT
Moon 12:09 AM EDT (9/22) 3:10 PM EDT (9/22)
Length of Visible Light 13h 01m
Length of Day
12h 09m
Last Quarter, 44% of the Moon is Illuminated
Sep 22
Last Quarter
Sep 28
New
Oct 5
First Quarter
Oct 13
Full
Oct 21
Last Quarter

Hourly Weather History & Observations

Time (EDT) Temp. Heat Index Dew Point Humidity Pressure Visibility Wind Dir Wind Speed Gust Speed Precip Events Conditions
12:15 AM 64.6 °F - 61.9 °F 91% 30.31 in 10.0 mi North - - N/A   Clear
12:35 AM 64.4 °F - 61.9 °F 92% 30.31 in 10.0 mi North - - N/A   Clear
12:55 AM 64.4 °F - 61.5 °F 90% 30.30 in 10.0 mi North - - N/A   Clear
1:15 AM 63.7 °F - 61.2 °F 91% 30.30 in 10.0 mi North - - N/A   Clear
1:35 AM 63.5 °F - 61.3 °F 93% 30.30 in 10.0 mi North - - N/A   Clear
1:55 AM 63.3 °F - 61.2 °F 93% 30.30 in 10.0 mi North - - N/A   Clear
2:15 AM 63.1 °F - 61.0 °F 93% 30.30 in 10.0 mi North - - N/A   Clear
2:35 AM 62.8 °F - 61.2 °F 94% 30.30 in 7.0 mi North - - N/A   Clear
2:55 AM 62.6 °F - 61.2 °F 95% 30.29 in 7.0 mi North - - N/A   Clear
3:15 AM 62.6 °F - 61.0 °F 94% 30.29 in 7.0 mi North - - N/A   Clear
3:35 AM 62.2 °F - 60.8 °F 95% 30.28 in 7.0 mi North - - N/A   Clear
3:55 AM 62.1 °F - 60.8 °F 96% 30.28 in 7.0 mi North - - N/A   Clear
4:15 AM 61.7 °F - 60.6 °F 96% 30.28 in 7.0 mi North - - N/A   Clear
4:35 AM 61.9 °F - 60.8 °F 96% 30.28 in 5.0 mi North - - N/A   Clear
4:55 AM 61.7 °F - 60.4 °F 96% 30.28 in 7.0 mi North - - N/A   Clear
5:15 AM 61.5 °F - 60.4 °F 96% 30.29 in 5.0 mi North - - N/A   Clear
5:35 AM 61.2 °F - 60.1 °F 96% 30.30 in 5.0 mi North - - N/A   Clear
5:55 AM 60.6 °F - 59.5 °F 96% 30.30 in 10.0 mi North - - N/A   Clear
6:15 AM 60.4 °F - 59.4 °F 96% 30.30 in 7.0 mi North - - N/A   Clear
6:35 AM 60.8 °F - 59.4 °F 95% 30.30 in 7.0 mi North - - N/A   Clear
6:55 AM 60.4 °F - 59.4 °F 96% 30.30 in 7.0 mi North - - N/A   Clear
7:15 AM 60.6 °F - 59.5 °F 96% 30.30 in 5.0 mi North - - N/A   Clear
7:35 AM 60.4 °F - 59.5 °F 97% 30.30 in 5.0 mi North - - N/A   Clear
7:55 AM 60.3 °F - 59.4 °F 97% 30.31 in 5.0 mi North - - N/A   Clear
8:15 AM 61.0 °F - 60.1 °F 97% 30.31 in 7.0 mi North - - N/A   Clear
8:35 AM 62.2 °F - 61.2 °F 96% 30.31 in 10.0 mi North - - N/A   Clear
8:55 AM 63.5 °F - 61.7 °F 94% 30.31 in 10.0 mi North - - N/A   Clear
9:15 AM 65.7 °F - 62.8 °F 90% 30.31 in 10.0 mi North - - N/A   Clear
9:35 AM 70.3 °F - 63.5 °F 79% 30.32 in 10.0 mi North - - N/A   Clear
9:55 AM 72.1 °F - 64.2 °F 76% 30.32 in 10.0 mi North - - N/A   Clear
10:15 AM 75.9 °F - 63.5 °F 65% 30.32 in 10.0 mi North - - N/A   Clear
10:35 AM 78.1 °F - 62.6 °F 59% 30.31 in 10.0 mi North - - N/A   Clear
10:55 AM 80.4 °F 81.5 °F 61.9 °F 53% 30.30 in 10.0 mi North - - N/A   Clear
11:15 AM 82.0 °F 82.7 °F 61.3 °F 49% 30.30 in 10.0 mi North - - N/A   Clear
11:35 AM 83.5 °F 83.6 °F 60.1 °F 45% 30.29 in 10.0 mi North - - N/A   Clear
11:55 AM 84.4 °F 84.2 °F 59.4 °F 43% 30.28 in 10.0 mi North - - N/A   Clear
12:15 PM 84.2 °F 83.7 °F 57.9 °F 41% 30.27 in 10.0 mi North - - N/A   Clear
12:35 PM 84.6 °F 84.0 °F 58.3 °F 41% 30.26 in 10.0 mi North - - N/A   Clear
12:55 PM 85.6 °F 84.8 °F 58.3 °F 39% 30.25 in 10.0 mi North - - N/A   Clear
1:15 PM 87.3 °F 86.7 °F 59.2 °F 39% 30.24 in 10.0 mi North - - N/A   Scattered Clouds
1:55 PM 88.5 °F 87.3 °F 57.7 °F 35% 30.22 in 10.0 mi North - - N/A   Scattered Clouds
2:15 PM 90.0 °F 88.6 °F 57.6 °F 33% 30.21 in 10.0 mi North - - N/A   Mostly Cloudy
2:35 PM 87.8 °F 86.5 °F 57.2 °F 35% 30.20 in 10.0 mi North - - N/A   Mostly Cloudy
2:55 PM 88.9 °F 87.3 °F 56.1 °F 33% 30.19 in 10.0 mi North - - N/A   Scattered Clouds
3:15 PM 86.9 °F 85.6 °F 57.0 °F 36% 30.19 in 10.0 mi North - - N/A   Scattered Clouds
3:35 PM 88.3 °F 87.1 °F 57.2 °F 35% 30.18 in 10.0 mi North - - N/A   Scattered Clouds
3:55 PM 88.7 °F 87.1 °F 56.5 °F 33% 30.16 in 10.0 mi North - - N/A   Mostly Cloudy
4:15 PM 90.0 °F 88.1 °F 55.8 °F 31% 30.15 in 10.0 mi North - - N/A   Mostly Cloudy
4:35 PM 88.7 °F 87.3 °F 57.0 °F 34% 30.15 in 10.0 mi North - - N/A   Scattered Clouds
4:55 PM 89.2 °F 87.5 °F 55.4 °F 32% 30.15 in 10.0 mi North - - N/A   Clear
5:15 PM 88.0 °F 86.3 °F 55.6 °F 33% 30.14 in 10.0 mi North - - N/A   Scattered Clouds
5:35 PM 88.9 °F 86.9 °F 54.5 °F 31% 30.14 in 10.0 mi North - - N/A   Scattered Clouds
5:55 PM 84.2 °F 83.8 °F 58.8 °F 42% 30.14 in 10.0 mi North - - N/A   Clear
6:15 PM 80.2 °F 81.3 °F 61.7 °F 53% 30.14 in 10.0 mi North - - N/A   Mostly Cloudy
6:35 PM 79.2 °F - 61.2 °F 54% 30.14 in 10.0 mi North - - N/A   Scattered Clouds
6:55 PM 77.7 °F - 60.1 °F 54% 30.14 in 10.0 mi North - - N/A   Clear
7:15 PM 76.1 °F - 60.8 °F 59% 30.14 in 10.0 mi North - - N/A   Clear
7:35 PM 74.3 °F - 61.5 °F 64% 30.14 in 10.0 mi North - - N/A   Clear
7:55 PM 73.0 °F - 61.7 °F 67% 30.14 in 10.0 mi North - - N/A   Clear
8:15 PM 71.8 °F - 60.3 °F 67% 30.14 in 10.0 mi North - - N/A   Clear
8:35 PM 70.5 °F - 59.9 °F 69% 30.15 in 10.0 mi North - - N/A   Clear
8:55 PM 68.9 °F - 60.3 °F 74% 30.15 in 10.0 mi North - - N/A   Clear
9:35 PM 67.3 °F - 59.9 °F 77% 30.15 in 10.0 mi North - - N/A   Clear
9:55 PM 66.9 °F - 59.7 °F 78% 30.16 in 10.0 mi North - - N/A   Clear
10:15 PM 66.2 °F - 59.4 °F 79% 30.16 in 10.0 mi North - - N/A   Clear
10:35 PM 65.3 °F - 59.2 °F 81% 30.16 in 10.0 mi North - - N/A   Clear
10:55 PM 64.9 °F - 59.4 °F 82% 30.16 in 10.0 mi North - - N/A   Clear
11:15 PM 64.4 °F - 59.2 °F 83% 30.16 in 10.0 mi North - - N/A   Clear
11:35 PM 63.7 °F - 58.8 °F 84% 30.16 in 10.0 mi North - - N/A   Clear
11:55 PM 63.5 °F - 59.2 °F 86% 30.16 in 10.0 mi North - - N/A   Clear